HB0RER-13 Weather Reports


Display with metric or nautical units.
time (UTC)temp
F
wind
direction
speed
MPH
gust
MPH
rain 1hr
in
rain 24hr
in
rain mn
in
humidity
%
barometer
mb
20260506072925 56 243 2.0 4.0 0.00 0.00 0.00 80 1007.0
20260506071925 55 255 2.0 4.0 0.00 0.00 0.00 81 1007.0
20260506070921 55 246 2.0 4.0 0.00 0.00 0.00 82 1007.0
20260506061912 55 247 2.0 4.0 0.00 0.00 0.00 79 1007.2
20260506060909 55 250 2.0 4.0 0.00 0.00 0.00 78 1007.2
20260506050857 51 255 2.0 4.0 0.00 0.00 0.00 80 1007.3
20260506044913 51 256 2.0 4.0 0.00 0.00 0.00 82 1007.5
20260506043911 51 260 2.0 4.0 0.00 0.00 0.00 80 1007.6
20260506042849 51 238 2.0 4.0 0.00 0.00 0.00 80 1007.7
20260506041908 51 234 1.0 3.0 0.00 0.00 0.00 79 1007.7
20260506040845 51 226 2.0 4.0 0.00 0.00 0.00 79 1007.8
20260506035844 51 230 2.0 4.0 0.00 0.00 0.00 80 1008.0
20260506034902 51 240 2.0 4.0 0.00 0.00 0.00 80 1008.1
20260506033919 51 229 2.0 4.0 0.00 0.00 0.00 79 1008.2
20260506032838 51 247 2.0 4.0 0.00 0.00 0.00 79 1008.3
20260506031835 51 242 2.0 5.0 0.00 0.00 0.00 79 1008.4
20260506030853 51 228 1.0 3.0 0.00 0.00 0.00 79 1008.4
20260506025831 51 252 2.0 5.0 0.00 0.00 0.00 79 1008.6
20260506024829 51 244 2.0 4.0 0.00 0.00 0.00 79 1008.7
20260506023827 51 252 2.0 4.0 0.00 0.00 0.00 78 1009.0
20260506022825 51 233 1.0 3.0 0.00 0.00 0.00 78 1009.2
20260506021843 51 230 1.0 3.0 0.00 0.00 0.00 78 1009.1
20260506020821 51 220 2.0 4.0 0.00 0.00 0.00 78 1009.3
20260506015819 52 246 2.0 5.0 0.00 0.00 0.00 78 1009.2
20260506014817 52 240 2.0 4.0 0.00 0.00 0.00 77 1009.2
20260506013816 52 227 1.0 3.0 0.00 0.00 0.00 77 1009.4
20260506012813 52 223 2.0 5.0 0.00 0.00 0.00 77 1009.4
20260506011811 52 235 2.0 4.0 0.00 0.00 0.00 76 1009.5
20260506010809 52 249 2.0 4.0 0.00 0.00 0.00 76 1009.5
20260506005807 52 244 2.0 4.0 0.00 0.00 0.00 76 1009.5
20260506004805 52 220 2.0 4.0 0.00 0.00 0.00 76 1009.4
20260506003803 52 231 2.0 4.0 0.00 0.00 0.00 76 1009.7
20260506002801 52 270 2.0 4.0 0.00 0.00 0.00 76 1009.9
20260506001759 52 248 2.0 4.0 0.00 0.00 0.00 75 1010.0
20260506000757 52 236 2.0 4.0 0.00 0.00 0.00 75 1010.1
20260505235755 52 240 2.0 4.0 0.00 0.00 0.00 75 1010.0
20260505234753 52 245 2.0 4.0 0.00 0.00 0.00 75 1009.9
20260505233811 52 241 2.0 3.0 0.00 0.00 0.00 74 1010.0
20260505232749 52 237 1.0 2.0 0.00 0.00 0.00 74 1010.1
20260505231747 53 225 2.0 4.0 0.00 0.00 0.00 73 1010.2
20260505230745 53 248 2.0 4.0 0.00 0.00 0.00 72 1010.1
20260505225743 53 215 1.0 4.0 0.00 0.00 0.00 71 1010.2
20260505224740 54 229 2.0 4.0 0.00 0.00 0.00 69 1010.2
20260505223740 55 221 2.0 4.0 0.00 0.00 0.00 69 1010.2
20260505222737 55 232 2.0 5.0 0.00 0.00 0.00 69 1010.2
20260505221756 55 245 2.0 4.0 0.00 0.00 0.00 69 1010.1
20260505220733 56 225 2.0 4.0 0.00 0.00 0.00 69 1010.2
20260505215731 56 226 2.0 5.0 0.00 0.00 0.00 69 1010.3
20260505214749 56 234 2.0 4.0 0.00 0.00 0.00 68 1010.4
20260505213727 57 216 1.0 5.0 0.00 0.00 0.00 68 1010.6
20260505212725 57 207 1.0 4.0 0.00 0.00 0.00 68 1010.5
20260505211723 57 225 2.0 4.0 0.00 0.00 0.00 68 1010.5
20260505210741 58 228 2.0 4.0 0.00 0.00 0.00 67 1010.4
20260505205719 58 223 2.0 4.0 0.00 0.00 0.00 67 1010.4
20260505204717 58 222 2.0 4.0 0.00 0.00 0.00 67 1010.3
20260505203715 58 216 2.0 4.0 0.00 0.00 0.00 67 1010.2
20260505202714 58 225 2.0 5.0 0.00 0.00 0.00 67 1010.2
20260505201711 59 223 2.0 5.0 0.00 0.00 0.00 66 1010.0
20260505200709 59 203 2.0 4.0 0.00 0.00 0.00 66 1010.0
20260505195707 60 215 2.0 5.0 0.00 0.00 0.00 67 1009.9
20260505194705 60 237 3.0 6.0 0.00 0.00 0.00 68 1009.8
20260505193703 60 225 2.0 4.0 0.00 0.00 0.00 67 1009.7
20260505192702 60 203 2.0 4.0 0.00 0.00 0.00 67 1009.6
20260505191719 61 128 2.0 6.0 0.00 0.00 0.00 64 1009.4
20260505190658 61 220 3.0 6.0 0.00 0.00 0.00 66 1009.2
20260505185655 61 64 2.0 3.0 0.00 0.00 0.00 66 1009.1
20260505184653 61 225 3.0 7.0 0.00 0.00 0.00 69 1009.0
20260505183651 61 90 2.0 4.0 0.00 0.00 0.00 70 1009.1
20260505182649 61 90 2.0 4.0 0.00 0.00 0.00 72 1009.1
20260505181707 61 90 2.0 4.0 0.00 0.00 0.00 72 1009.1
20260505180645 61 205 2.0 4.0 0.00 0.00 0.00 73 1008.9
20260505175724 61 219 3.0 7.0 0.00 0.00 0.00 73 1008.9
20260505174701 62 213 3.0 6.0 0.00 0.00 0.00 72 1008.6
20260505173639 62 217 3.0 6.0 0.00 0.00 0.00 72 1008.5
20260505172636 62 222 3.0 5.0 0.00 0.00 0.00 72 1008.3
20260505171635 62 218 3.0 7.0 0.00 0.00 0.00 71 1008.2
20260505170633 62 225 3.0 6.0 0.00 0.00 0.00 71 1008.1
20260505165632 62 220 4.0 7.0 0.00 0.00 0.00 71 1008.1
20260505164629 63 215 3.0 7.0 0.00 0.00 0.00 71 1008.0
20260505163628 63 220 4.0 7.0 0.00 0.00 0.00 71 1007.9
20260505162625 63 225 4.0 7.0 0.00 0.00 0.00 70 1007.8
20260505161623 63 219 4.0 7.0 0.00 0.00 0.00 69 1007.8
20260505160621 63 220 4.0 9.0 0.00 0.00 0.00 69 1007.8
20260505152634 64 215 3.0 8.0 0.00 0.00 0.00 67 1007.5
20260505151611 64 229 4.0 8.0 0.00 0.00 0.00 69 1007.6
20260505150609 64 225 4.0 8.0 0.00 0.00 0.00 69 1007.5
20260505140558 64 225 4.0 11.0 0.00 0.00 0.00 68 1007.6
20260505124541 64 237 4.0 10.0 0.00 0.00 0.00 68 1008.2
20260505123540 63 230 3.0 7.0 0.00 0.00 0.00 70 1008.4
20260505122537 62 236 3.0 7.0 0.00 0.00 0.00 70 1008.4
20260505121555 62 239 3.0 7.0 0.00 0.00 0.00 72 1008.5
20260505120533 61 237 3.0 6.0 0.00 0.00 0.00 73 1008.7
20260505115532 61 233 4.0 9.0 0.00 0.00 0.00 73 1008.7
20260505114529 61 235 3.0 7.0 0.00 0.00 0.00 73 1008.9
20260505113527 61 246 2.0 4.0 0.00 0.00 0.00 72 1008.9
20260505112525 60 230 2.0 6.0 0.00 0.00 0.00 71 1009.0
20260505111523 60 235 3.0 6.0 0.00 0.00 0.00 71 1009.1
20260505110541 60 231 3.0 6.0 0.00 0.00 0.00 71 1009.1
20260505101512 59 233 2.0 5.0 0.00 0.00 0.00 76 1009.4
20260505100509 59 234 2.0 5.0 0.00 0.00 0.00 75 1009.4
20260505095507 58 231 2.0 4.0 0.00 0.00 0.00 76 1009.4
20260505094505 58 234 2.0 4.0 0.00 0.00 0.00 76 1009.5
20260505093505 58 236 2.0 4.0 0.00 0.00 0.00 76 1009.6
20260505092501 58 238 2.0 4.0 0.00 0.00 0.00 76 1009.7
20260505091519 58 233 2.0 6.0 0.00 0.00 0.00 76 1009.6
20260505090457 57 237 2.0 4.0 0.00 0.00 0.00 76 1009.7
20260505085455 57 248 2.0 4.0 0.00 0.00 0.00 76 1009.7
20260505084453 57 243 1.0 4.0 0.00 0.00 0.00 76 1009.8
20260505083451 57 241 2.0 4.0 0.00 0.00 0.00 76 1009.8
20260505082449 57 242 1.0 4.0 0.00 0.00 0.00 76 1009.9
20260505081447 57 244 2.0 4.0 0.00 0.00 0.00 77 1010.0
20260505080445 56 238 2.0 4.0 0.00 0.00 0.00 76 1010.1